Time,TemperatureF,DewpointF,PressureIn,WindDirection,WindDirectionDegrees,WindSpeedMPH,WindSpeedGustMPH,Humidity,HourlyPrecipIn,Conditions,Clouds,dailyrainin,SoftwareType,DateUTC
2013-02-27 00:12:00,49.2,37.0,30.20,East,92,0.0,-999.0,63,-99.99,,,0.00,weatherlink.com 1.10,2013-02-27 08:12:00,
2013-02-27 00:27:00,48.6,38.0,30.20,East,91,0.0,-999.0,66,-99.99,,,0.00,weatherlink.com 1.10,2013-02-27 08:27:00,
2013-02-27 00:42:00,48.3,38.0,30.20,East,92,0.0,-999.0,68,-99.99,,,0.00,weatherlink.com 1.10,2013-02-27 08:42:00,
2013-02-27 00:57:00,48.7,38.0,30.20,East,92,0.0,-999.0,66,-99.99,,,0.00,weatherlink.com 1.10,2013-02-27 08:57:00,
2013-02-27 01:12:00,49.0,37.0,30.20,East,91,2.0,-999.0,64,-99.99,,,0.00,weatherlink.com 1.10,2013-02-27 09:12:00,
2013-02-27 01:27:00,49.2,37.0,30.21,East,91,0.0,-999.0,64,-99.99,,,0.00,weatherlink.com 1.10,2013-02-27 09:27:00,
2013-02-27 01:42:00,48.5,37.0,30.21,East,91,0.0,-999.0,65,-99.99,,,0.00,weatherlink.com 1.10,2013-02-27 09:42:00,
2013-02-27 01:57:00,48.2,37.0,30.21,East,91,2.0,-999.0,66,-99.99,,,0.00,weatherlink.com 1.10,2013-02-27 09:57:00,
2013-02-27 02:12:00,48.3,37.0,30.22,East,91,0.0,-999.0,65,-99.99,,,0.00,weatherlink.com 1.10,2013-02-27 10:12:00,
2013-02-27 02:27:00,47.8,36.0,30.23,East,91,1.0,-999.0,64,-99.99,,,0.00,weatherlink.com 1.10,2013-02-27 10:27:00,
2013-02-27 02:42:00,48.1,36.0,30.23,East,86,0.0,-999.0,64,-99.99,,,0.00,weatherlink.com 1.10,2013-02-27 10:42:00,
2013-02-27 02:57:00,48.0,36.0,30.23,East,86,0.0,-999.0,63,-99.99,,,0.00,weatherlink.com 1.10,2013-02-27 10:57:00,
2013-02-27 03:12:00,48.1,35.0,30.23,East,86,0.0,-999.0,62,-99.99,,,0.00,weatherlink.com 1.10,2013-02-27 11:12:00,
2013-02-27 03:27:00,47.3,35.0,30.23,East,86,0.0,-999.0,62,-99.99,,,0.00,weatherlink.com 1.10,2013-02-27 11:27:00,
2013-02-27 03:42:00,46.7,35.0,30.23,East,86,0.0,-999.0,63,-99.99,,,0.00,weatherlink.com 1.10,2013-02-27 11:42:00,
2013-02-27 03:57:00,47.0,35.0,30.22,East,86,2.0,-999.0,64,-99.99,,,0.00,weatherlink.com 1.10,2013-02-27 11:57:00,
2013-02-27 04:12:00,47.6,37.0,30.22,East,86,0.0,-999.0,66,-99.99,,,0.00,weatherlink.com 1.10,2013-02-27 12:12:00,
2013-02-27 04:27:00,47.6,38.0,30.23,East,86,0.0,-999.0,70,-99.99,,,0.00,weatherlink.com 1.10,2013-02-27 12:27:00,
2013-02-27 04:42:00,47.7,38.0,30.23,East,86,0.0,-999.0,68,-99.99,,,0.00,weatherlink.com 1.10,2013-02-27 12:42:00,
2013-02-27 04:57:00,47.9,37.0,30.23,East,86,0.0,-999.0,66,-99.99,,,0.00,weatherlink.com 1.10,2013-02-27 12:57:00,
2013-02-27 05:12:00,47.9,35.0,30.23,East,86,0.0,-999.0,62,-99.99,,,0.00,weatherlink.com 1.10,2013-02-27 13:12:00,
2013-02-27 05:27:00,47.8,36.0,30.24,East,86,0.0,-999.0,63,-99.99,,,0.00,weatherlink.com 1.10,2013-02-27 13:27:00,
2013-02-27 05:42:00,46.3,35.0,30.24,East,86,0.0,-999.0,66,-99.99,,,0.00,weatherlink.com 1.10,2013-02-27 13:42:00,
2013-02-27 05:57:00,46.3,35.0,30.25,NE,49,0.0,-999.0,65,-99.99,,,0.00,weatherlink.com 1.10,2013-02-27 13:57:00,
2013-02-27 06:12:00,45.7,36.0,30.25,NE,49,0.0,-999.0,68,-99.99,,,0.00,weatherlink.com 1.10,2013-02-27 14:12:00,
2013-02-27 06:27:00,46.6,35.0,30.25,NE,44,0.0,-999.0,65,-99.99,,,0.00,weatherlink.com 1.10,2013-02-27 14:27:00,
2013-02-27 06:42:00,46.0,36.0,30.27,NE,44,0.0,-999.0,69,-99.99,,,0.00,weatherlink.com 1.10,2013-02-27 14:42:00,
2013-02-27 06:57:00,45.5,36.0,30.27,NE,41,2.0,-999.0,69,-99.99,,,0.00,weatherlink.com 1.10,2013-02-27 14:57:00,
2013-02-27 07:12:00,45.9,34.0,30.27,WNW,300,0.0,-999.0,63,-99.99,,,0.00,weatherlink.com 1.10,2013-02-27 15:12:00,
2013-02-27 07:27:00,47.7,35.0,30.28,WNW,301,0.0,-999.0,61,-99.99,,,0.00,weatherlink.com 1.10,2013-02-27 15:27:00,
2013-02-27 07:42:00,46.7,35.0,30.29,WNW,302,0.0,-999.0,65,-99.99,,,0.00,weatherlink.com 1.10,2013-02-27 15:42:00,
2013-02-27 07:57:00,46.8,36.0,30.29,WNW,302,0.0,-999.0,66,-99.99,,,0.00,weatherlink.com 1.10,2013-02-27 15:57:00,
2013-02-27 08:12:00,46.0,36.0,30.30,WNW,302,0.0,-999.0,68,-99.99,,,0.00,weatherlink.com 1.10,2013-02-27 16:12:00,
2013-02-27 08:27:00,46.5,37.0,30.30,WNW,303,0.0,-999.0,69,-99.99,,,0.00,weatherlink.com 1.10,2013-02-27 16:27:00,
2013-02-27 08:42:00,47.4,38.0,30.31,East,85,0.0,-999.0,69,-99.99,,,0.00,weatherlink.com 1.10,2013-02-27 16:42:00,
2013-02-27 08:57:00,49.0,38.0,30.31,East,86,2.0,-999.0,65,-99.99,,,0.00,weatherlink.com 1.10,2013-02-27 16:57:00,
2013-02-27 09:12:00,50.5,39.0,30.31,East,87,0.0,-999.0,66,-99.99,,,0.00,weatherlink.com 1.10,2013-02-27 17:12:00,
2013-02-27 09:27:00,50.6,40.0,30.31,East,92,1.0,-999.0,66,-99.99,,,0.00,weatherlink.com 1.10,2013-02-27 17:27:00,
2013-02-27 09:57:00,50.8,40.0,30.32,ESE,105,1.0,-999.0,67,-99.99,,,0.00,weatherlink.com 1.10,2013-02-27 17:57:00,
2013-02-27 10:12:00,52.0,41.0,30.32,ESE,116,0.0,-999.0,67,-99.99,,,0.00,weatherlink.com 1.10,2013-02-27 18:12:00,
2013-02-27 10:27:00,53.2,42.0,30.32,ESE,107,1.0,-999.0,66,-99.99,,,0.00,weatherlink.com 1.10,2013-02-27 18:27:00,
2013-02-27 10:42:00,53.7,42.0,30.31,ESE,104,3.0,-999.0,65,-99.99,,,0.00,weatherlink.com 1.10,2013-02-27 18:42:00,
2013-02-27 10:57:00,54.8,43.0,30.31,ESE,107,2.0,-999.0,64,-99.99,,,0.00,weatherlink.com 1.10,2013-02-27 18:57:00,
2013-02-27 11:12:00,56.1,43.0,30.31,ESE,109,0.0,-999.0,61,-99.99,,,0.00,weatherlink.com 1.10,2013-02-27 19:12:00,
2013-02-27 11:27:00,57.2,43.0,30.31,East,90,4.0,-999.0,59,-99.99,,,0.00,weatherlink.com 1.10,2013-02-27 19:27:00,
2013-02-27 11:42:00,57.6,40.0,30.31,SE,141,2.0,-999.0,53,-99.99,,,0.00,weatherlink.com 1.10,2013-02-27 19:42:00,
2013-02-27 11:57:00,58.2,38.0,30.30,East,88,3.0,-999.0,47,-99.99,,,0.00,weatherlink.com 1.10,2013-02-27 19:57:00,
2013-02-27 12:12:00,60.5,38.0,30.30,ESE,121,2.0,-999.0,44,-99.99,,,0.00,weatherlink.com 1.10,2013-02-27 20:12:00,
2013-02-27 12:27:00,60.3,38.0,30.30,East,95,2.0,-999.0,44,-99.99,,,0.00,weatherlink.com 1.10,2013-02-27 20:27:00,
2013-02-27 12:42:00,61.2,38.0,30.30,East,94,2.0,-999.0,43,-99.99,,,0.00,weatherlink.com 1.10,2013-02-27 20:42:00,
2013-02-27 12:57:00,60.9,37.0,30.29,East,94,2.0,-999.0,42,-99.99,,,0.00,weatherlink.com 1.10,2013-02-27 20:57:00,
2013-02-27 13:12:00,60.3,36.0,30.29,ESE,111,6.0,-999.0,40,-99.99,,,0.00,weatherlink.com 1.10,2013-02-27 21:12:00,
2013-02-27 13:27:00,60.3,37.0,30.28,ESE,109,2.0,-999.0,42,-99.99,,,0.00,weatherlink.com 1.10,2013-02-27 21:27:00,
2013-02-27 13:42:00,61.8,40.0,30.28,ESE,110,2.0,-999.0,45,-99.99,,,0.00,weatherlink.com 1.10,2013-02-27 21:42:00,
2013-02-27 13:57:00,61.1,40.0,30.27,ENE,78,7.0,-999.0,46,-99.99,,,0.00,weatherlink.com 1.10,2013-02-27 21:57:00,
2013-02-27 14:12:00,61.5,41.0,30.28,SSE,153,0.0,-999.0,48,-99.99,,,0.00,weatherlink.com 1.10,2013-02-27 22:12:00,
2013-02-27 14:27:00,63.2,44.0,30.27,ESE,111,0.0,-999.0,49,-99.99,,,0.00,weatherlink.com 1.10,2013-02-27 22:27:00,
2013-02-27 14:42:00,66.3,45.0,30.27,SW,232,0.0,-999.0,46,-99.99,,,0.00,weatherlink.com 1.10,2013-02-27 22:42:00,
2013-02-27 14:57:00,67.8,46.0,30.27,SW,231,5.0,-999.0,46,-99.99,,,0.00,weatherlink.com 1.10,2013-02-27 22:57:00,
2013-02-27 15:12:00,67.2,46.0,30.26,WSW,244,1.0,-999.0,47,-99.99,,,0.00,weatherlink.com 1.10,2013-02-27 23:12:00,
2013-02-27 15:27:00,69.0,47.0,30.27,SW,236,0.0,-999.0,46,-99.99,,,0.00,weatherlink.com 1.10,2013-02-27 23:27:00,
2013-02-27 15:42:00,70.2,48.0,30.27,WSW,238,1.0,-999.0,45,-99.99,,,0.00,weatherlink.com 1.10,2013-02-27 23:42:00,
2013-02-27 15:57:00,68.0,47.0,30.27,SW,232,1.0,-999.0,48,-99.99,,,0.00,weatherlink.com 1.10,2013-02-27 23:57:00,
2013-02-27 16:12:00,68.3,47.0,30.27,SW,233,0.0,-999.0,47,-99.99,,,0.00,weatherlink.com 1.10,2013-02-28 00:12:00,
2013-02-27 16:27:00,68.5,48.0,30.27,WSW,239,0.0,-999.0,48,-99.99,,,0.00,weatherlink.com 1.10,2013-02-28 00:27:00,
2013-02-27 16:42:00,67.4,43.0,30.27,West,271,4.0,-999.0,41,-99.99,,,0.00,weatherlink.com 1.10,2013-02-28 00:42:00,
2013-02-27 16:57:00,64.5,39.0,30.27,NNW,333,1.0,-999.0,39,-99.99,,,0.00,weatherlink.com 1.10,2013-02-28 00:57:00,
2013-02-27 17:12:00,61.7,39.0,30.27,NW,326,7.0,-999.0,43,-99.99,,,0.00,weatherlink.com 1.10,2013-02-28 01:12:00,
2013-02-27 17:27:00,60.7,40.0,30.28,WNW,298,5.0,-999.0,46,-99.99,,,0.00,weatherlink.com 1.10,2013-02-28 01:27:00,
2013-02-27 17:42:00,59.6,40.0,30.29,WNW,288,2.0,-999.0,49,-99.99,,,0.00,weatherlink.com 1.10,2013-02-28 01:42:00,
2013-02-27 17:57:00,58.5,41.0,30.29,West,270,1.0,-999.0,52,-99.99,,,0.00,weatherlink.com 1.10,2013-02-28 01:57:00,
2013-02-27 18:12:00,58.0,41.0,30.29,West,268,10.0,-999.0,54,-99.99,,,0.00,weatherlink.com 1.10,2013-02-28 02:12:00,
2013-02-27 18:27:00,57.7,41.0,30.29,West,280,4.0,-999.0,55,-99.99,,,0.00,weatherlink.com 1.10,2013-02-28 02:27:00,
2013-02-27 18:42:00,58.0,42.0,30.29,West,271,11.0,-999.0,55,-99.99,,,0.00,weatherlink.com 1.10,2013-02-28 02:42:00,
2013-02-27 18:57:00,58.6,42.0,30.30,North,10,16.0,-999.0,55,-99.99,,,0.00,weatherlink.com 1.10,2013-02-28 02:57:00,
2013-02-27 19:12:00,58.5,42.0,30.30,WNW,290,13.0,-999.0,55,-99.99,,,0.00,weatherlink.com 1.10,2013-02-28 03:12:00,
2013-02-27 19:27:00,58.0,42.0,30.30,WNW,302,15.0,-999.0,56,-99.99,,,0.00,weatherlink.com 1.10,2013-02-28 03:27:00,
2013-02-27 19:42:00,58.6,43.0,30.31,WSW,257,13.0,-999.0,56,-99.99,,,0.00,weatherlink.com 1.10,2013-02-28 03:42:00,
2013-02-27 19:57:00,57.8,43.0,30.31,NW,306,11.0,-999.0,58,-99.99,,,0.00,weatherlink.com 1.10,2013-02-28 03:57:00,
2013-02-27 20:20:00,58.3,43.0,30.31,WNW,299,18.0,-999.0,57,-99.99,,,0.00,weatherlink.com 1.10,2013-02-28 04:20:00,
2013-02-27 20:27:00,58.6,43.0,30.31,WNW,298,18.0,-999.0,56,-99.99,,,0.00,weatherlink.com 1.10,2013-02-28 04:27:00,
2013-02-27 20:42:00,59.0,43.0,30.32,WNW,300,15.0,-999.0,56,-99.99,,,0.00,weatherlink.com 1.10,2013-02-28 04:42:00,
2013-02-27 21:01:00,58.1,43.0,30.32,NW,316,10.0,-999.0,58,-99.99,,,0.00,weatherlink.com 1.10,2013-02-28 05:01:00,
2013-02-27 21:13:00,57.5,44.0,30.33,West,261,10.0,-999.0,60,-99.99,,,0.00,weatherlink.com 1.10,2013-02-28 05:13:00,
2013-02-27 21:28:00,57.2,44.0,30.33,West,269,4.0,-999.0,61,-99.99,,,0.00,weatherlink.com 1.10,2013-02-28 05:28:00,
2013-02-27 21:43:00,57.1,43.0,30.34,WSW,257,1.0,-999.0,60,-99.99,,,0.00,weatherlink.com 1.10,2013-02-28 05:43:00,
2013-02-27 21:58:00,56.3,44.0,30.34,ESE,122,0.0,-999.0,63,-99.99,,,0.00,weatherlink.com 1.10,2013-02-28 05:58:00,
2013-02-27 22:14:00,53.0,43.0,30.35,East,96,4.0,-999.0,70,-99.99,,,0.00,weatherlink.com 1.10,2013-02-28 06:14:00,
2013-02-27 22:29:00,51.7,44.0,30.35,East,100,0.0,-999.0,74,-99.99,,,0.00,weatherlink.com 1.10,2013-02-28 06:29:00,
2013-02-27 22:44:00,51.2,44.0,30.35,East,96,2.0,-999.0,75,-99.99,,,0.00,weatherlink.com 1.10,2013-02-28 06:44:00,
2013-02-27 22:58:00,51.0,44.0,30.36,East,96,0.0,-999.0,76,-99.99,,,0.00,weatherlink.com 1.10,2013-02-28 06:58:00,
2013-02-27 23:14:00,51.2,44.0,30.36,East,96,0.0,-999.0,76,-99.99,,,0.00,weatherlink.com 1.10,2013-02-28 07:14:00,
2013-02-27 23:29:00,50.9,44.0,30.36,East,96,0.0,-999.0,77,-99.99,,,0.00,weatherlink.com 1.10,2013-02-28 07:29:00,
2013-02-27 23:44:00,50.9,44.0,30.36,East,96,0.0,-999.0,77,-99.99,,,0.00,weatherlink.com 1.10,2013-02-28 07:44:00,
2013-02-27 23:59:00,50.7,44.0,30.36,East,96,0.0,-999.0,77,-99.99,,,0.00,weatherlink.com 1.10,2013-02-28 07:59:00,